User: anonymous   Login
Location: Karlovy Vary
(50.2170°N, 12.9000°E)
Time: 19:57:07
(UTC+02:00)
Language:

ISS - Orbit

View from above orbital plane
View from above orbital plane
View from above satellite
View from above satellite

Ground track
Ground track

The orbit data is extracted from the following two-line orbital elements,

1 25544U 98067A   15210.50981519 -.00000889  00000-0 -59643-5 0  9996
2 25544 051.6429 232.7011 0001164 017.5025 138.2044 15.54917120954620
Epoch (UTC): 29 July 2015 12:14:08
Eccentricity: 0.0001164
inclination: 51.6429°
perigee height: 401 km
apogee height: 403 km
right ascension of ascending node: 232.7011°
argument of perigee: 17.5025°
revolutions per day: 15.54917120
mean anomaly at epoch: 138.2044°
orbit number at epoch: 95462

The dashed part of the orbit path shows where the satellite is in the earth's shadow,  

DLR